Weather History for Hazen, ND

Change the Weather History Date:

Sunday, March 17, 2013

  Actual Average (KN60) Record (KN60)
Temperature  
Mean Temperature 17 °F -  
Max Temperature 24 °F 31 °F 68 °F (2012)
Min Temperature 10 °F 14 °F 3 °F (1997)
Degree Days  
Heating Degree Days 48    
Moisture  
Dew Point 12 °F    
Average Humidity 79    
Maximum Humidity 93    
Minimum Humidity 73    
Precipitation  
Precipitation 0.91 in - - ()
Sea Level Pressure  
Sea Level Pressure 29.71 in    
Wind  
Wind Speed 13 mph (SE)    
Max Wind Speed 29 mph    
Max Gust Speed 39 mph    
Visibility 7 miles    
Events Snow    
Averages and records for this station are not official NWS values.
T = Trace of Precipitation, MM = Missing Value Source: NWS Daily Summary

Daily Weather History Graph

Daily Weather History Graph

Search for Another Location

Airport:

Trip Planner

Search our weather history database for the weather conditions in past years. The results will help you decide how hot, cold, wet, or windy it might be!

Date:

Astronomy

Mar. 17, 2013 Rise Set
Actual Time 7:54 AM CDT 7:55 PM CDT
Civil Twilight 7:24 AM CDT 8:25 PM CDT
Nautical Twilight 6:48 AM CDT 9:01 PM CDT
Astronomical Twilight 6:11 AM CDT 9:38 PM CDT
Moon 10:46 AM CDT (3/17) 1:26 AM CDT (3/17)
Length of Visible Light 13h 01m
Length of Day
12h 00m
Waxing Crescent, 31% of the Moon is Illuminated
Mar 17
Waxing Crescent
Mar 19
First Quarter
Mar 27
Full
Apr 2
Last Quarter
Apr 10
New

Hourly Weather History & Observations

Time (CDT) Temp. Windchill Dew Point Humidity Pressure Visibility Wind Dir Wind Speed Gust Speed Precip Events Conditions
12:15 AM 10.4 °F -4.1 °F 3.2 °F 73% 30.10 in 10.0 mi SE 11.5 mph - N/A Snow Light Snow
12:35 AM 10.4 °F -3.3 °F 5.0 °F 79% 30.09 in 5.0 mi SE 10.4 mph 16.1 mph N/A Snow Light Snow
12:55 AM 10.4 °F -4.8 °F 5.0 °F 79% 30.08 in 4.0 mi SE 12.7 mph - 0.01 in Snow Light Snow
1:15 AM 10.4 °F -4.1 °F 5.0 °F 79% 30.07 in 5.0 mi SE 11.5 mph - N/A Snow Light Snow
1:35 AM 10.4 °F -4.1 °F 5.0 °F 79% 30.05 in 6.0 mi SE 11.5 mph - 0.01 in Snow Light Snow
1:55 AM 12.2 °F -1.0 °F 5.0 °F 73% 30.05 in 7.0 mi SE 10.4 mph - 0.02 in Snow Light Snow
2:15 AM 10.4 °F -3.3 °F 5.0 °F 79% 30.02 in 4.0 mi SE 10.4 mph 18.4 mph N/A Snow Light Snow
2:35 AM 12.2 °F -2.5 °F 5.0 °F 73% 30.01 in 10.0 mi SE 12.7 mph 20.7 mph N/A Snow Light Snow
2:55 AM 12.2 °F -0.2 °F 6.8 °F 79% 30.00 in 10.0 mi SE 9.2 mph - N/A Snow Light Snow
3:15 AM 12.2 °F -1.8 °F 6.8 °F 79% 29.99 in 10.0 mi SE 11.5 mph 17.3 mph N/A   Overcast
3:35 AM 12.2 °F -3.1 °F 6.8 °F 79% 29.98 in 10.0 mi SE 13.8 mph 21.9 mph N/A   Overcast
3:55 AM 14.0 °F -1.4 °F 6.8 °F 73% 29.96 in 10.0 mi SE 15.0 mph 18.4 mph N/A   Overcast
4:15 AM 14.0 °F 0.5 °F 6.8 °F 73% 29.96 in 10.0 mi SE 11.5 mph 19.6 mph N/A   Overcast
4:35 AM 14.0 °F -0.2 °F 6.8 °F 73% 29.95 in 10.0 mi SE 12.7 mph 18.4 mph N/A   Overcast
5:15 AM 14.0 °F 0.5 °F 6.8 °F 73% 29.93 in 10.0 mi SE 11.5 mph 18.4 mph N/A   Overcast
5:35 AM 14.0 °F -1.4 °F 6.8 °F 73% 29.92 in 10.0 mi SE 15.0 mph 19.6 mph N/A   Overcast
5:55 AM 14.0 °F 0.5 °F 6.8 °F 73% 29.91 in 10.0 mi SE 11.5 mph 17.3 mph N/A   Overcast
6:15 AM 14.0 °F -0.2 °F 6.8 °F 73% 29.89 in 10.0 mi SE 12.7 mph 20.7 mph N/A   Overcast
6:35 AM 14.0 °F 2.0 °F 6.8 °F 73% 29.88 in 10.0 mi SE 9.2 mph 21.9 mph N/A   Overcast
6:55 AM 14.0 °F -1.4 °F 6.8 °F 73% 29.87 in 10.0 mi SE 15.0 mph 25.3 mph N/A   Overcast
7:15 AM 14.0 °F 2.9 °F 6.8 °F 73% 29.86 in 10.0 mi SE 8.1 mph 20.7 mph N/A   Overcast
7:35 AM 14.0 °F -2.0 °F 6.8 °F 73% 29.84 in 10.0 mi SSE 16.1 mph 24.2 mph N/A   Overcast
7:55 AM 12.2 °F -4.3 °F 6.8 °F 79% 29.83 in 10.0 mi SSE 16.1 mph 24.2 mph N/A Snow Light Snow
8:15 AM 12.2 °F -5.3 °F 6.8 °F 79% 29.82 in 10.0 mi SSE 18.4 mph 23.0 mph N/A   Overcast
8:35 AM 14.0 °F -0.2 °F 6.8 °F 73% 29.80 in 9.0 mi SE 12.7 mph 23.0 mph N/A Snow Light Snow
8:55 AM 12.2 °F -3.7 °F 6.8 °F 79% 29.79 in 8.0 mi SSE 15.0 mph 21.9 mph N/A Snow Light Snow
9:15 AM 14.0 °F -2.5 °F 6.8 °F 73% 29.77 in 10.0 mi SSE 17.3 mph 20.7 mph N/A   Mostly Cloudy
9:35 AM 14.0 °F -3.0 °F 6.8 °F 73% 29.76 in 9.0 mi SE 18.4 mph 25.3 mph N/A   Mostly Cloudy
10:15 AM 14.0 °F -1.4 °F 8.6 °F 79% 29.74 in 7.0 mi SSE 15.0 mph 21.9 mph N/A   Scattered Clouds
10:35 AM 15.8 °F -0.2 °F 8.6 °F 73% 29.73 in 7.0 mi SSE 17.3 mph 24.2 mph N/A   Mostly Cloudy
10:55 AM 15.8 °F -0.6 °F 8.6 °F 73% 29.71 in 8.0 mi SSE 18.4 mph 27.6 mph N/A   Mostly Cloudy
11:15 AM 15.8 °F -1.1 °F 10.4 °F 79% 29.70 in 10.0 mi SSE 19.6 mph 27.6 mph N/A   Overcast
11:35 AM 17.6 °F 0.5 °F 10.4 °F 73% 29.68 in 10.0 mi SSE 21.9 mph 25.3 mph N/A   Mostly Cloudy
11:55 AM 17.6 °F 3.2 °F 10.4 °F 73% 29.67 in 10.0 mi SSE 15.0 mph 27.6 mph N/A   Mostly Cloudy
12:15 PM 17.6 °F 2.2 °F 12.2 °F 79% 29.67 in 10.0 mi SSE 17.3 mph 26.5 mph N/A   Mostly Cloudy
12:35 PM 19.4 °F 4.1 °F 12.2 °F 74% 29.65 in 10.0 mi SSE 18.4 mph 25.3 mph N/A   Overcast
12:55 PM 19.4 °F 5.0 °F 12.2 °F 74% 29.64 in 10.0 mi SSE 16.1 mph 24.2 mph N/A   Mostly Cloudy
1:15 PM 19.4 °F 5.0 °F 14.0 °F 80% 29.63 in 10.0 mi SE 16.1 mph 23.0 mph N/A   Mostly Cloudy
1:35 PM 19.4 °F 5.5 °F 14.0 °F 80% 29.61 in 10.0 mi SE 15.0 mph 21.9 mph N/A   Overcast
1:55 PM 19.4 °F 6.0 °F 14.0 °F 80% 29.60 in 10.0 mi SE 13.8 mph 20.7 mph N/A   Overcast
2:15 PM 19.4 °F 4.1 °F 14.0 °F 80% 29.59 in 10.0 mi SE 18.4 mph - N/A   Overcast
2:35 PM 19.4 °F 4.5 °F 15.8 °F 86% 29.58 in 10.0 mi SSE 17.3 mph 24.2 mph N/A   Overcast
2:55 PM 21.2 °F 7.3 °F 15.8 °F 80% 29.56 in 10.0 mi SSE 16.1 mph 24.2 mph N/A   Overcast
3:15 PM 21.2 °F 7.8 °F 15.8 °F 80% 29.54 in 10.0 mi SSE 15.0 mph - N/A   Mostly Cloudy
3:35 PM 23.0 °F 8.7 °F 17.6 °F 80% 29.53 in 3.0 mi SE 18.4 mph 25.3 mph N/A Snow Light Snow
3:55 PM 23.0 °F 10.6 °F 17.6 °F 80% 29.52 in 1.0 mi SE 13.8 mph 23.0 mph 0.01 in Snow Light Snow
4:15 PM 21.2 °F 8.3 °F 17.6 °F 86% 29.50 in 0.8 mi SE 13.8 mph 20.7 mph 0.05 in Snow Light Snow
4:35 PM 23.0 °F 12.4 °F 17.6 °F 80% 29.49 in 1.8 mi SE 10.4 mph 18.4 mph 0.07 in Snow Light Snow
4:55 PM 23.0 °F 11.1 °F 17.6 °F 80% 29.49 in 10.0 mi SE 12.7 mph 18.4 mph 0.07 in   Overcast
5:15 PM 23.0 °F 14.7 °F 17.6 °F 80% 29.48 in 10.0 mi SE 6.9 mph - N/A   Overcast
5:35 PM 23.0 °F 10.6 °F 17.6 °F 80% 29.48 in 3.0 mi SE 13.8 mph 18.4 mph N/A Snow Light Snow
5:55 PM 23.0 °F 13.9 °F 19.4 °F 86% 29.48 in 0.8 mi ESE 8.1 mph - 0.04 in Snow Light Snow
6:15 PM 23.0 °F 15.8 °F 19.4 °F 86% 29.47 in 0.8 mi ESE 5.8 mph - 0.03 in Snow Light Snow
6:35 PM 24.8 °F 17.9 °F 19.4 °F 80% 29.48 in 2.0 mi ESE 5.8 mph - 0.05 in Snow Light Snow
6:55 PM 24.8 °F 17.9 °F 19.4 °F 80% 29.48 in 1.2 mi SE 5.8 mph - 0.13 in Snow Light Snow
7:15 PM 24.8 °F 19.1 °F 21.2 °F 86% 29.48 in 1.5 mi ESE 4.6 mph - 0.04 in Snow Light Snow
7:35 PM 24.8 °F 20.5 °F 21.2 °F 86% 29.49 in 2.0 mi SSE 3.5 mph - 0.09 in Snow Light Snow
7:55 PM 24.8 °F - 21.2 °F 86% 29.49 in 3.0 mi Calm Calm - 0.11 in Snow Light Snow
8:15 PM 24.8 °F - 23.0 °F 93% 29.49 in 7.0 mi Calm Calm - N/A Snow Light Snow
8:35 PM 24.8 °F 20.5 °F 21.2 °F 86% 29.50 in 2.0 mi North 3.5 mph - 0.08 in Snow Light Snow
8:55 PM 23.0 °F 17.0 °F 21.2 °F 93% 29.51 in 1.5 mi NW 4.6 mph - 0.21 in Snow Light Snow
9:15 PM 23.0 °F 15.8 °F 21.2 °F 93% 29.51 in 1.8 mi WNW 5.8 mph - 0.07 in Snow Light Snow
9:35 PM 23.0 °F 14.7 °F 21.2 °F 93% 29.52 in 2.0 mi West 6.9 mph - 0.12 in Snow Light Snow
9:55 PM 23.0 °F 13.1 °F 21.2 °F 93% 29.52 in 3.0 mi West 9.2 mph - 0.15 in Snow Light Snow
10:15 PM 23.0 °F 12.4 °F 19.4 °F 86% 29.53 in 3.0 mi West 10.4 mph - 0.02 in Snow Light Snow
10:35 PM 23.0 °F 11.7 °F 19.4 °F 86% 29.54 in 2.5 mi West 11.5 mph - 0.08 in Snow Light Snow
10:55 PM 23.0 °F 7.2 °F 19.4 °F 86% 29.55 in 2.5 mi WNW 23.0 mph 31.1 mph 0.15 in Snow Light Snow
11:15 PM 19.4 °F 2.8 °F 14.0 °F 80% 29.56 in 9.0 mi WNW 21.9 mph 32.2 mph N/A Snow Light Snow
11:35 PM 19.4 °F 0.8 °F 14.0 °F 80% 29.57 in 9.0 mi WNW 28.8 mph 36.8 mph N/A Snow Light Snow
11:55 PM 17.6 °F -1.6 °F 14.0 °F 86% 29.59 in 4.0 mi NW 28.8 mph 39.1 mph 0.01 in Snow Light Snow